Regional Weather Roundup
Issued by NWS Charleston, SC

Current Version | Previous Version | Text Only | Print | Product List | Glossary Off
Versions: 1 2 3 4 5 6 7 8 9 10 11 12 13 14 15 16 17 18 19 20 21 22 23 24 25 26 27 28 29 30 31 32 33 34 35 36 37 38 39 40 41 42 43 44 45 46 47 48 49 50

000
ASUS42 KCHS 210612
RWRCHS

Regional Weather Roundup
National Weather Service Charleston SC
200 AM EDT MON MAY 21 2018

NOTE: "fair" indicates few or no clouds below 12,000 feet with no
significant weather and/or obstructions to visibility.

Not all stations are quality controlled. Use data with caution,
especially dewpoint observations.

SCZ027-030-031-034>040-042>050-210700-
...Southeast South Carolina...

CITY           SKY/WX    TMP DP  RH WIND       PRES   REMARKS
N Charleston   MOCLDY    70  70 100 S5        30.14F
6HR MIN TEMP:  70; 6HR MAX TEMP:  76;

Waterfront Prk   N/A     74  72  93 CALM      29.99F
Mount Pleasant FAIR      70  70 100 CALM      30.15F
Johns Island   FAIR      72  70  94 CALM      30.15F
Pinopolis        N/A     73  70  88 VRB2      30.06F
Moncks Corner  FAIR      68  68 100 CALM      30.14F
Summerville    FAIR      70  68  94 CALM      30.16S
Beaufort MCAS  FAIR      69  69 100 CALM      30.14F
6HR MIN TEMP:  68; 6HR MAX TEMP:  75;

Beaufort Arpt  FAIR      72  70  94 CALM      30.14F
Hilton Head Is FAIR      70  68  94 CALM      30.15F
Walterboro     FAIR      68  68 100 CALM      30.15F
Allendale      CLOUDY    72  72 100 CALM      30.14S FOG

...Southern Midlands and Pee Dee...

CITY           SKY/WX    TMP DP  RH WIND       PRES   REMARKS
Georgetown     FAIR     N/A N/A N/A CALM      30.16S
Kingstree      FAIR      70  70 100 CALM      30.14S
Orangeburg     FAIR      71  70  96 SW6       30.14F
6HR MIN TEMP:  71; 6HR MAX TEMP:  74; 6HR PCP: TRACE;

Barnwell       CLOUDY    70  70 100 CALM      30.15F
Aiken          LGT RAIN  68  68 100 W3        30.19S
Manning        FAIR      68  68 100 SW3       30.13F
Columbia       MOCLDY    73  71  93 W5        30.13R
6HR MIN TEMP:  73; 6HR MAX TEMP:  78; 6HR PCP: TRACE;

Sumter         CLOUDY    72  69  90 S3        30.11S
6HR MIN TEMP:  72; 6HR MAX TEMP:  75; 6HR PCP: TRACE;

Florence       FAIR      72  70  93 SW3       30.13S
6HR MIN TEMP:  72; 6HR MAX TEMP:  78; 6HR PCP:  0.36;

Myrtle Beach   FAIR      73  70  90 SW6       30.15F
N Myrtle Beach FAIR      73  71  93 SW8       30.14S
6HR MIN TEMP:  73; 6HR MAX TEMP:  75;


$$

GAZ063-065-086>088-099>101-113>116-118-119-134>141-150-210700-
...Southeast Georgia...

CITY           SKY/WX    TMP DP  RH WIND       PRES   REMARKS
Savannah Arpt  FAIR      70  69  97 CALM      30.15F
6HR MIN TEMP:  70; 6HR MAX TEMP:  73;

Hunter AAF     FAIR      71  68  93 CALM      30.12F
6HR MIN TEMP:  70; 6HR MAX TEMP:  73;

Fort Stewart   MOCLDY    70  70 100 CALM      30.13F
6HR MIN TEMP:  70; 6HR MAX TEMP:  73;

Statesboro     FAIR      67  66  97 CALM      30.15F
Sylvania       FAIR      68  68 100 CALM      30.16F
Claxton        FOG       70  69  98 CALM      30.16S VSB 1/2

...CSRA, Central and far Southeast Georgia...

CITY           SKY/WX    TMP DP  RH WIND       PRES   REMARKS
Thomson        MOCLDY    69  67  95 NE5       30.22F
Augusta-Bush   CLOUDY    69  67  93 N7        30.15S
6HR MIN TEMP:  68; 6HR MAX TEMP:  75;

Augusta-Daniel CLOUDY    72  64  76 NW6       30.17R
Swainsboro     FAIR      68  66  94 CALM      30.15F
Vidalia        FAIR      68  64  88 CALM      30.16R
Eastman        CLOUDY    69  62  77 SE6       30.17S
Hazlehurst       N/A     71  67  89 NE3       30.13F
Alma           LGT RAIN  71  69  93 E5        30.13F
6HR MIN TEMP:  70; 6HR MAX TEMP:  72; 6HR PCP: TRACE;

Waycross       CLOUDY    71  68  90 E5        30.13S
Jesup          NOT AVBL
Baxley         CLOUDY    68  68 100 CALM      30.13F
Brunswick      FAIR      72  68  88 E5        30.14S
Saint Simons   FAIR      75  72  90 E10       30.12F
6HR MIN TEMP:  74; 6HR MAX TEMP:  75;


$$

SCZ027-028-034-036>038-045-046-048>050-GAZ119-141-210700-
...Lake and Supplemental Coastal Observations...

STATION/POSITION TIME  TEMP    WIND        PRES    WAVE   SWELL
                       AIR SEA DIR/SP/G            HT/PER HT/PER/DIR
                 (UTC) (F)     (DEG/KT/KT) (MB)    (FT/S) (FT/S/D)
Winyah Bay       0445   74     220/  5     1021.0
Lake Murray      0520   74     300/  4/  8 1019.3
ACE Basin NERRS  0445   71        CALM     1021.0
Fort Pulaski     0536      78  130/  2/  3 1021.3S
Sapelo Island    0500   74      90/  4     1020.0

$$

ANZ835-935-AMZ111-154-330-350-352-354-370-450-454-472-210700-
...C-MAN and Buoy Observations...

STATION/POSITION TIME  TEMP    WIND        PRES    WAVE   SWELL
                       AIR SEA DIR/SP/G            HT/PER HT/PER/DIR
                 (UTC) (F)     (DEG/KT/KT) (MB)    (FT/S) (FT/S/D)
Buoy 41004       0550      75  110/  4/  6 1020.8F   6/ 9   5/140/ 9
Buoy 41008       0550   74 75  100/ 10/ 10 1020.0F   4/10   3/110/10
Folly Beach CMAN 0500   74     180/  6/  7 1021.6F
Capers Nearshore 0508   74 76  190/  6/ 10 1021.8F
Fripp Nearshore  0508   74 77  120/  4/  8 1020.8F


STATION/POSITION TIME  TEMP    WIND        PRES    WAVE   SWELL
                       AIR SEA DIR/SP/G            HT/PER HT/PER/DIR
                 (UTC) (F)     (DEG/KT/KT) (MB)    (FT/S) (FT/S/D)
5E St. Marys GA  0600      74                N/A     3/ 8
Frying Pan Buoy  0550   75 75  210/  8/ 10 1020.7F   5/ 9   5/130/ 9
Buoy 41025       0600   75 75  230/ 14/ 16 1020.5
Cape Lookout NC  0500          220/  9/ 12 1020.9F
Buoy 41002       0550      77  160/ 12/ 14 1022.1F   5/ 9   3/140/ 9
Buoy 41010       0550   77 78  120/ 16/ 19 1020.3F   6/ 9   3/120/ 9
St Augustine FL  0600   76 76  120/ 10/ 11 1019.2F


$$



USA.gov is the U.S. government's official web portal to all federal, state and local government web resources and services.